| time (UTC) | temp C | wind direction | speed KPH | gust KPH | rain 1hr cm | rain 24hr cm | rain mn cm | humidity % | barometer mb |
| 20260506202143 | 15 | 215 | 3.2 | 11.3 | 0.03 | 0.33 | 0.33 | 95 | 1006.5 |
| 20260506201643 | 15 | 207 | 3.2 | 9.7 | 0.03 | 0.33 | 0.33 | 95 | 1006.6 |
| 20260506201144 | 15 | 197 | 3.2 | 11.3 | 0.03 | 0.33 | 0.33 | 95 | 1006.5 |
| 20260506200645 | 15 | 223 | 3.2 | 11.3 | 0.03 | 0.33 | 0.33 | 94 | 1006.5 |
| 20260506200142 | 15 | 198 | 3.2 | 16.1 | 0.05 | 0.33 | 0.33 | 94 | 1006.6 |
| 20260506195643 | 15 | 192 | 3.2 | 16.1 | 0.03 | 0.30 | 0.30 | 94 | 1006.7 |
| 20260506195145 | 15 | 239 | 1.6 | 8.0 | 0.05 | 0.30 | 0.30 | 95 | 1006.8 |
| 20260506194642 | 15 | 234 | 4.8 | 14.5 | 0.05 | 0.30 | 0.30 | 94 | 1006.8 |
| 20260506194147 | 15 | 212 | 4.8 | 16.1 | 0.08 | 0.30 | 0.30 | 94 | 1006.8 |
| 20260506194142 | 15 | 228 | 6.4 | 16.1 | 0.05 | 0.30 | 0.30 | 94 | 1006.7 |
| 20260506193143 | 15 | 215 | 4.8 | 16.1 | 0.08 | 0.30 | 0.30 | 94 | 1006.7 |
| 20260506192651 | 15 | 207 | 4.8 | 12.9 | 0.10 | 0.30 | 0.30 | 94 | 1007.0 |
| 20260506192643 | 15 | 206 | 4.8 | 16.1 | 0.10 | 0.30 | 0.30 | 94 | 1006.9 |
| 20260506192310 | 15 | 193 | 4.8 | 12.9 | 0.10 | 0.30 | 0.30 | 94 | 1007.0 |
| 20260506191144 | 15 | 201 | 3.2 | 12.9 | 0.10 | 0.30 | 0.30 | 93 | 1006.9 |
| 20260506190641 | 15 | 168 | 3.2 | 14.5 | 0.13 | 0.30 | 0.30 | 93 | 1006.9 |
| 20260506190141 | 15 | 169 | 4.8 | 17.7 | 0.10 | 0.28 | 0.30 | 93 | 1007.0 |
| 20260506185642 | 15 | 153 | 4.8 | 17.7 | 0.10 | 0.28 | 0.28 | 93 | 1007.1 |
| 20260506185143 | 15 | 191 | 3.2 | 12.9 | 0.08 | 0.25 | 0.25 | 93 | 1007.1 |
| 20260506184641 | 15 | 180 | 3.2 | 12.9 | 0.10 | 0.25 | 0.25 | 93 | 1007.1 |
| 20260506184140 | 15 | 212 | 3.2 | 9.7 | 0.10 | 0.25 | 0.25 | 93 | 1007.3 |
| 20260506183642 | 15 | 234 | 3.2 | 9.7 | 0.10 | 0.23 | 0.23 | 93 | 1007.4 |
| 20260506183140 | 15 | 254 | 1.6 | 8.0 | 0.10 | 0.23 | 0.23 | 93 | 1007.0 |
| 20260506182640 | 15 | 206 | 1.6 | 11.3 | 0.10 | 0.20 | 0.20 | 93 | 1006.8 |
| 20260506182141 | 16 | 235 | 1.6 | 11.3 | 0.13 | 0.20 | 0.20 | 94 | 1006.9 |
| 20260506181648 | 16 | 230 | 1.6 | 12.9 | 0.15 | 0.20 | 0.20 | 93 | 1006.8 |
| 20260506181642 | 16 | 223 | 1.6 | 12.9 | 0.13 | 0.20 | 0.20 | 93 | 1006.8 |
| 20260506180644 | 16 | 254 | 0.0 | 9.7 | 0.18 | 0.18 | 0.18 | 93 | 1007.4 |
| 20260506180638 | 16 | 226 | 1.6 | 9.7 | 0.15 | 0.18 | 0.18 | 93 | 1007.3 |
| 20260506175639 | 16 | 165 | 1.6 | 12.9 | 0.18 | 0.18 | 0.18 | 93 | 1007.5 |
| 20260506175140 | 16 | 215 | 1.6 | 12.9 | 0.18 | 0.18 | 0.18 | 92 | 1007.6 |
| 20260506174637 | 16 | 205 | 0.0 | 9.7 | 0.15 | 0.15 | 0.15 | 92 | 1007.8 |
| 20260506174142 | 16 | 183 | 1.6 | 6.4 | 0.13 | 0.13 | 0.13 | 91 | 1008.1 |
| 20260506174137 | 16 | 184 | 0.0 | 4.8 | 0.15 | 0.15 | 0.15 | 92 | 1007.9 |
| 20260506173139 | 16 | 182 | 0.0 | 6.4 | 0.13 | 0.13 | 0.13 | 91 | 1008.2 |
| 20260506172636 | 16 | 178 | 1.6 | 9.7 | 0.10 | 0.10 | 0.10 | 89 | 1008.3 |
| 20260506172136 | 16 | 179 | 3.2 | 12.9 | 0.08 | 0.08 | 0.08 | 88 | 1008.4 |
| 20260506171638 | 16 | 193 | 4.8 | 14.5 | 0.08 | 0.08 | 0.08 | 87 | 1008.6 |
| 20260506171137 | 17 | 216 | 4.8 | 17.7 | 0.05 | 0.05 | 0.05 | 85 | 1008.7 |
| 20260506170634 | 17 | 221 | 4.8 | 17.7 | 0.03 | 0.03 | 0.03 | 83 | 1008.8 |
| 20260506170134 | 18 | 230 | 4.8 | 20.9 | 0.00 | 0.00 | 0.00 | 82 | 1008.7 |
| 20260506165638 | 18 | 158 | 6.4 | 16.1 | 0.00 | 0.00 | 0.00 | 77 | 1008.5 |
| 20260506165634 | 18 | 240 | 4.8 | 20.9 | 0.00 | 0.00 | 0.00 | 79 | 1008.5 |
| 20260506164632 | 18 | 177 | 8.0 | 22.5 | 0.00 | 0.00 | 0.00 | 75 | 1008.4 |
| 20260506164137 | 19 | 226 | 8.0 | 24.1 | 0.00 | 0.00 | 0.00 | 73 | 1008.2 |
| 20260506164132 | 18 | 213 | 8.0 | 22.5 | 0.00 | 0.00 | 0.00 | 74 | 1008.2 |
| 20260506163128 | 19 | 149 | 8.0 | 24.1 | 0.00 | 0.00 | 0.00 | 74 | 1008.2 |
| 20260506162629 | 19 | 197 | 8.0 | 24.1 | 0.00 | 0.00 | 0.00 | 72 | 1008.2 |
| 20260506162134 | 20 | 170 | 8.0 | 20.9 | 0.00 | 0.00 | 0.00 | 72 | 1008.3 |
| 20260506162128 | 19 | 246 | 6.4 | 20.9 | 0.00 | 0.00 | 0.00 | 74 | 1008.2 |
| 20260506161126 | 20 | 139 | 8.0 | 20.9 | 0.00 | 0.00 | 0.00 | 72 | 1008.4 |
| 20260506160624 | 20 | 185 | 6.4 | 19.3 | 0.00 | 0.00 | 0.00 | 72 | 1008.5 |
| 20260506160126 | 19 | 232 | 6.4 | 19.3 | 0.00 | 0.00 | 0.00 | 72 | 1008.5 |
| 20260506155626 | 19 | 189 | 6.4 | 20.9 | 0.00 | 0.00 | 0.00 | 72 | 1008.7 |
| 20260506155122 | 20 | 212 | 4.8 | 20.9 | 0.00 | 0.00 | 0.00 | 72 | 1008.6 |
| 20260506154621 | 19 | 190 | 4.8 | 19.3 | 0.00 | 0.00 | 0.00 | 73 | 1008.6 |
| 20260506154125 | 19 | 192 | 6.4 | 16.1 | 0.00 | 0.00 | 0.00 | 72 | 1008.6 |
| 20260506154120 | 19 | 193 | 6.4 | 19.3 | 0.00 | 0.00 | 0.00 | 73 | 1008.6 |
| 20260506153121 | 19 | 200 | 4.8 | 16.1 | 0.00 | 0.00 | 0.00 | 72 | 1008.8 |
| 20260506152616 | 19 | 237 | 4.8 | 17.7 | 0.00 | 0.00 | 0.00 | 73 | 1008.7 |
| 20260506152126 | 19 | 219 | 4.8 | 14.5 | 0.00 | 0.00 | 0.00 | 74 | 1008.7 |
| 20260506152117 | 19 | 204 | 6.4 | 17.7 | 0.00 | 0.00 | 0.00 | 73 | 1008.7 |
| 20260506151116 | 19 | 214 | 4.8 | 20.9 | 0.00 | 0.00 | 0.00 | 74 | 1008.8 |
| 20260506150617 | 19 | 170 | 6.4 | 20.9 | 0.00 | 0.00 | 0.00 | 74 | 1008.8 |
| 20260506150115 | 18 | 231 | 4.8 | 19.3 | 0.00 | 0.00 | 0.00 | 75 | 1008.9 |
| 20260506145619 | 18 | 215 | 6.4 | 16.1 | 0.00 | 0.00 | 0.00 | 75 | 1009.0 |
| 20260506145614 | 18 | 170 | 4.8 | 19.3 | 0.00 | 0.00 | 0.00 | 75 | 1009.0 |
| 20260506144613 | 18 | 194 | 4.8 | 16.1 | 0.00 | 0.00 | 0.00 | 75 | 1009.1 |
| 20260506144112 | 18 | 220 | 6.4 | 19.3 | 0.00 | 0.00 | 0.00 | 76 | 1009.1 |
| 20260506143617 | 18 | 181 | 6.4 | 19.3 | 0.00 | 0.00 | 0.00 | 75 | 1009.2 |
| 20260506143612 | 18 | 162 | 6.4 | 19.3 | 0.00 | 0.00 | 0.00 | 75 | 1009.1 |
| 20260506142610 | 18 | 265 | 8.0 | 19.3 | 0.00 | 0.00 | 0.00 | 76 | 1009.2 |
| 20260506142110 | 18 | 176 | 6.4 | 19.3 | 0.00 | 0.00 | 0.00 | 76 | 1009.2 |
| 20260506141611 | 18 | 199 | 4.8 | 16.1 | 0.00 | 0.00 | 0.00 | 77 | 1009.3 |
| 20260506141114 | 18 | 220 | 6.4 | 16.1 | 0.00 | 0.00 | 0.00 | 77 | 1009.3 |
| 20260506141109 | 18 | 167 | 6.4 | 16.1 | 0.00 | 0.00 | 0.00 | 76 | 1009.2 |
| 20260506140732 | 18 | 222 | 6.4 | 16.1 | 0.00 | 0.00 | 0.00 | 76 | 1009.2 |
| 20260506135605 | 18 | 163 | 8.0 | 14.5 | 0.00 | 0.00 | 0.00 | 77 | 1009.1 |
| 20260506135104 | 18 | 126 | 6.4 | 19.3 | 0.00 | 0.00 | 0.00 | 78 | 1009.1 |
| 20260506134605 | 18 | 221 | 6.4 | 19.3 | 0.00 | 0.00 | 0.00 | 77 | 1009.0 |
| 20260506134105 | 18 | 232 | 6.4 | 16.1 | 0.00 | 0.00 | 0.00 | 78 | 1009.0 |
| 20260506133604 | 18 | 155 | 8.0 | 20.9 | 0.00 | 0.00 | 0.00 | 78 | 1008.9 |
| 20260506133107 | 18 | 249 | 6.4 | 20.9 | 0.00 | 0.00 | 0.00 | 78 | 1008.9 |
| 20260506132604 | 17 | 206 | 6.4 | 14.5 | 0.00 | 0.00 | 0.00 | 80 | 1009.0 |
| 20260506132107 | 17 | 234 | 6.4 | 22.5 | 0.00 | 0.00 | 0.00 | 80 | 1009.1 |
| 20260506132103 | 17 | 223 | 6.4 | 17.7 | 0.00 | 0.00 | 0.00 | 79 | 1009.2 |
| 20260506131100 | 17 | 180 | 4.8 | 22.5 | 0.00 | 0.00 | 0.00 | 80 | 1009.2 |
| 20260506130601 | 17 | 215 | 3.2 | 12.9 | 0.00 | 0.00 | 0.00 | 81 | 1009.1 |
| 20260506125559 | 17 | 176 | 6.4 | 24.1 | 0.00 | 0.00 | 0.00 | 80 | 1009.4 |
| 20260506125100 | 17 | 198 | 8.0 | 19.3 | 0.00 | 0.00 | 0.00 | 80 | 1009.6 |
| 20260506124557 | 17 | 162 | 6.4 | 17.7 | 0.00 | 0.00 | 0.00 | 80 | 1009.8 |
| 20260506124058 | 17 | 146 | 4.8 | 17.7 | 0.00 | 0.00 | 0.00 | 80 | 1009.6 |
| 20260506123557 | 17 | 234 | 4.8 | 17.7 | 0.00 | 0.00 | 0.00 | 81 | 1009.7 |
| 20260506123056 | 17 | 226 | 6.4 | 17.7 | 0.00 | 0.00 | 0.00 | 81 | 1009.7 |
| 20260506122558 | 17 | 207 | 6.4 | 17.7 | 0.00 | 0.00 | 0.00 | 82 | 1009.7 |
| 20260506122102 | 17 | 231 | 6.4 | 17.7 | 0.00 | 0.00 | 0.00 | 82 | 1009.4 |
| 20260506122058 | 17 | 206 | 6.4 | 17.7 | 0.00 | 0.00 | 0.00 | 81 | 1009.5 |
| 20260506121055 | 17 | 178 | 4.8 | 16.1 | 0.00 | 0.00 | 0.00 | 81 | 1009.4 |
| 20260506120554 | 16 | 218 | 3.2 | 12.9 | 0.00 | 0.00 | 0.00 | 82 | 1009.6 |
| 20260506120100 | 16 | 235 | 6.4 | 17.7 | 0.00 | 0.00 | 0.00 | 82 | 1009.5 |
| 20260506120056 | 16 | 175 | 4.8 | 17.7 | 0.00 | 0.00 | 0.00 | 82 | 1009.5 |
| 20260506115054 | 16 | 232 | 4.8 | 17.7 | 0.00 | 0.00 | 0.00 | 83 | 1009.7 |
| 20260506114556 | 16 | 216 | 4.8 | 14.5 | 0.00 | 0.00 | 0.00 | 83 | 1009.7 |
| 20260506114054 | 16 | 191 | 6.4 | 16.1 | 0.00 | 0.00 | 0.00 | 83 | 1009.6 |
| 20260506113553 | 16 | 165 | 4.8 | 16.1 | 0.00 | 0.00 | 0.00 | 83 | 1009.5 |
| 20260506113052 | 16 | 232 | 4.8 | 19.3 | 0.00 | 0.00 | 0.00 | 84 | 1009.5 |
| 20260506112552 | 16 | 210 | 4.8 | 19.3 | 0.00 | 0.00 | 0.00 | 83 | 1009.4 |
| 20260506112055 | 16 | 222 | 3.2 | 16.1 | 0.00 | 0.00 | 0.00 | 84 | 1009.7 |
| 20260506111553 | 16 | 218 | 1.6 | 12.9 | 0.00 | 0.00 | 0.00 | 84 | 1010.0 |
| 20260506111053 | 16 | 174 | 3.2 | 12.9 | 0.00 | 0.00 | 0.00 | 84 | 1010.0 |
| 20260506110552 | 15 | 186 | 3.2 | 11.3 | 0.00 | 0.00 | 0.00 | 84 | 1009.9 |
| 20260506110054 | 15 | 212 | 3.2 | 12.9 | 0.00 | 0.00 | 0.00 | 84 | 1009.9 |
| 20260506105552 | 15 | 145 | 3.2 | 12.9 | 0.00 | 0.00 | 0.00 | 84 | 1009.9 |
| 20260506105052 | 16 | 182 | 3.2 | 16.1 | 0.00 | 0.00 | 0.00 | 84 | 1010.0 |
| 20260506104553 | 15 | 179 | 3.2 | 16.1 | 0.00 | 0.00 | 0.00 | 84 | 1010.0 |
| 20260506104053 | 15 | 231 | 3.2 | 12.9 | 0.00 | 0.00 | 0.00 | 84 | 1009.9 |
| 20260506103551 | 15 | 195 | 3.2 | 12.9 | 0.00 | 0.00 | 0.00 | 85 | 1009.7 |
| 20260506103049 | 15 | 189 | 1.6 | 8.0 | 0.00 | 0.00 | 0.00 | 85 | 1009.5 |
| 20260506102554 | 15 | 189 | 0.0 | 3.2 | 0.00 | 0.00 | 0.00 | 85 | 1009.5 |
| 20260506102549 | 15 | 222 | 1.6 | 8.0 | 0.00 | 0.00 | 0.00 | 85 | 1009.5 |
| 20260506101550 | 15 | 190 | 1.6 | 12.9 | 0.00 | 0.00 | 0.00 | 85 | 1009.6 |
| 20260506101051 | 15 | 184 | 1.6 | 12.9 | 0.00 | 0.00 | 0.00 | 85 | 1009.5 |
| 20260506100547 | 15 | 198 | 1.6 | 8.0 | 0.00 | 0.00 | 0.00 | 85 | 1009.5 |
| 20260506100048 | 15 | 178 | 1.6 | 8.0 | 0.00 | 0.00 | 0.00 | 85 | 1009.6 |
| 20260506095547 | 15 | 220 | 1.6 | 8.0 | 0.00 | 0.00 | 0.00 | 85 | 1009.6 |
| 20260506095047 | 15 | 212 | 1.6 | 19.3 | 0.00 | 0.00 | 0.00 | 85 | 1009.5 |
| 20260506094553 | 15 | 209 | 0.0 | 4.8 | 0.00 | 0.00 | 0.00 | 84 | 1009.6 |
| 20260506094546 | 15 | 215 | 1.6 | 19.3 | 0.00 | 0.00 | 0.00 | 84 | 1009.6 |
| 20260506093544 | 15 | 210 | 1.6 | 11.3 | 0.00 | 0.00 | 0.00 | 84 | 1009.6 |
| 20260506093045 | 15 | 210 | 1.6 | 11.3 | 0.00 | 0.00 | 0.00 | 84 | 1009.6 |
| 20260506092546 | 15 | 193 | 1.6 | 8.0 | 0.00 | 0.00 | 0.00 | 83 | 1009.6 |
| 20260506092046 | 15 | 200 | 1.6 | 6.4 | 0.00 | 0.00 | 0.00 | 83 | 1009.5 |
| 20260506091544 | 15 | 169 | 0.0 | 6.4 | 0.00 | 0.00 | 0.00 | 83 | 1009.6 |
| 20260506091043 | 15 | 168 | 1.6 | 6.4 | 0.00 | 0.00 | 0.00 | 82 | 1009.6 |
| 20260506090543 | 15 | 202 | 1.6 | 9.7 | 0.00 | 0.00 | 0.00 | 82 | 1009.5 |
| 20260506090043 | 15 | 188 | 3.2 | 9.7 | 0.00 | 0.00 | 0.00 | 82 | 1009.5 |
| 20260506085542 | 15 | 175 | 1.6 | 9.7 | 0.00 | 0.00 | 0.00 | 82 | 1009.6 |
| 20260506085045 | 15 | 201 | 1.6 | 9.7 | 0.00 | 0.00 | 0.00 | 81 | 1009.5 |
| 20260506084542 | 16 | 255 | 1.6 | 12.9 | 0.00 | 0.00 | 0.00 | 81 | 1009.6 |
| 20260506084042 | 16 | 258 | 1.6 | 12.9 | 0.00 | 0.00 | 0.00 | 81 | 1009.6 |
| 20260506083542 | 16 | 203 | 3.2 | 8.0 | 0.00 | 0.00 | 0.00 | 80 | 1009.6 |
| 20260506083047 | 16 | 221 | 3.2 | 12.9 | 0.00 | 0.00 | 0.00 | 81 | 1009.6 |
| 20260506083042 | 16 | 225 | 3.2 | 12.9 | 0.00 | 0.00 | 0.00 | 81 | 1009.5 |
| 20260506082704 | 16 | 243 | 3.2 | 11.3 | 0.00 | 0.00 | 0.00 | 81 | 1009.5 |
| 20260506081547 | 15 | 224 | 3.2 | 14.5 | 0.00 | 0.00 | 0.00 | 81 | 1009.5 |
| 20260506081539 | 16 | 226 | 3.2 | 11.3 | 0.00 | 0.00 | 0.00 | 81 | 1009.5 |
| 20260506081040 | 15 | 212 | 3.2 | 14.5 | 0.00 | 0.00 | 0.00 | 81 | 1009.6 |
| 20260506073157 | 16 | 193 | 3.2 | 9.7 | 0.00 | 0.00 | 0.00 | 80 | 1009.7 |
| 20260506072037 | 16 | 187 | 4.8 | 14.5 | 0.00 | 0.00 | 0.00 | 79 | 1009.8 |
| 20260506071536 | 16 | 216 | 6.4 | 14.5 | 0.00 | 0.00 | 0.00 | 80 | 1009.8 |
| 20260506071036 | 16 | 257 | 4.8 | 22.5 | 0.00 | 0.00 | 0.00 | 80 | 1009.8 |
| 20260506070534 | 16 | 170 | 4.8 | 22.5 | 0.00 | 0.00 | 0.00 | 80 | 1009.7 |
| 20260506062028 | 16 | 164 | 3.2 | 12.9 | 0.00 | 0.00 | 0.00 | 79 | 1009.6 |
| 20260506061528 | 16 | 287 | 3.2 | 12.9 | 0.00 | 0.00 | 0.00 | 78 | 1009.6 |
| 20260506061030 | 16 | 207 | 3.2 | 11.3 | 0.00 | 0.00 | 0.00 | 78 | 1009.6 |
| 20260506060529 | 16 | 194 | 4.8 | 11.3 | 0.00 | 0.00 | 0.00 | 78 | 1009.6 |
| 20260506051024 | 17 | 216 | 6.4 | 22.5 | 0.00 | 0.00 | 0.00 | 75 | 1009.7 |
| 20260506050523 | 17 | 133 | 6.4 | 22.5 | 0.00 | 0.00 | 0.00 | 75 | 1009.8 |
| 20260506045024 | 17 | 178 | 6.4 | 19.3 | 0.00 | 0.00 | 0.00 | 74 | 1009.8 |
| 20260506044520 | 17 | 177 | 6.4 | 19.3 | 0.00 | 0.00 | 0.00 | 74 | 1009.8 |
| 20260506044021 | 17 | 197 | 4.8 | 19.3 | 0.00 | 0.00 | 0.00 | 73 | 1009.9 |
| 20260506043522 | 17 | 222 | 6.4 | 14.5 | 0.00 | 0.00 | 0.00 | 72 | 1010.0 |
| 20260506043518 | 17 | 187 | 4.8 | 12.9 | 0.00 | 0.00 | 0.00 | 73 | 1009.9 |
| 20260506042519 | 17 | 172 | 6.4 | 17.7 | 0.00 | 0.00 | 0.00 | 72 | 1010.0 |
| 20260506042018 | 17 | 182 | 4.8 | 17.7 | 0.00 | 0.00 | 0.00 | 72 | 1009.9 |
| 20260506041520 | 17 | 88 | 4.8 | 17.7 | 0.00 | 0.00 | 0.00 | 72 | 1009.8 |
| 20260506041018 | 17 | 200 | 4.8 | 17.7 | 0.00 | 0.00 | 0.00 | 71 | 1010.0 |
| 20260506040520 | 17 | 217 | 4.8 | 24.1 | 0.00 | 0.00 | 0.00 | 71 | 1009.8 |
| 20260506040017 | 17 | 213 | 4.8 | 24.1 | 0.00 | 0.00 | 0.00 | 70 | 1009.9 |
| 20260506035516 | 17 | 155 | 3.2 | 16.1 | 0.00 | 0.00 | 0.00 | 70 | 1009.9 |
| 20260506035014 | 17 | 205 | 3.2 | 12.9 | 0.00 | 0.00 | 0.00 | 70 | 1010.0 |
| 20260506034515 | 17 | 178 | 4.8 | 19.3 | 0.00 | 0.00 | 0.00 | 69 | 1010.0 |
| 20260506034015 | 17 | 216 | 3.2 | 19.3 | 0.00 | 0.00 | 0.00 | 69 | 1010.0 |
| 20260506033515 | 17 | 262 | 3.2 | 14.5 | 0.00 | 0.00 | 0.00 | 69 | 1010.0 |
| 20260506033014 | 17 | 180 | 4.8 | 17.7 | 0.00 | 0.00 | 0.00 | 69 | 1010.1 |
| 20260506032515 | 17 | 110 | 4.8 | 17.7 | 0.00 | 0.00 | 0.00 | 69 | 1010.1 |
| 20260506032021 | 17 | 168 | 4.8 | 19.3 | 0.00 | 0.00 | 0.00 | 68 | 1010.0 |
| 20260506032015 | 17 | 189 | 4.8 | 16.1 | 0.00 | 0.00 | 0.00 | 69 | 1010.1 |
| 20260506031015 | 17 | 199 | 6.4 | 19.3 | 0.00 | 0.00 | 0.00 | 69 | 1009.9 |
| 20260506030521 | 17 | 185 | 4.8 | 16.1 | 0.00 | 0.00 | 0.00 | 69 | 1010.0 |
| 20260506030516 | 17 | 226 | 4.8 | 17.7 | 0.00 | 0.00 | 0.00 | 69 | 1010.1 |
| 20260506025522 | 17 | 228 | 3.2 | 16.1 | 0.00 | 0.00 | 0.00 | 69 | 1010.0 |
| 20260506025516 | 17 | 218 | 4.8 | 16.1 | 0.00 | 0.00 | 0.00 | 69 | 1010.0 |
| 20260506025014 | 17 | 199 | 4.8 | 16.1 | 0.00 | 0.00 | 0.00 | 69 | 1010.0 |
| 20260506024016 | 17 | 226 | 3.2 | 16.1 | 0.00 | 0.00 | 0.00 | 69 | 1009.9 |
| 20260506023516 | 17 | 133 | 4.8 | 9.7 | 0.00 | 0.00 | 0.00 | 68 | 1009.8 |
| 20260506023016 | 17 | 201 | 3.2 | 14.5 | 0.00 | 0.00 | 0.00 | 68 | 1009.9 |
| 20260506022515 | 17 | 232 | 3.2 | 17.7 | 0.00 | 0.00 | 0.00 | 68 | 1009.8 |
| 20260506022015 | 17 | 221 | 3.2 | 17.7 | 0.00 | 0.00 | 0.00 | 68 | 1009.9 |
| 20260506021515 | 17 | 191 | 3.2 | 11.3 | 0.00 | 0.00 | 0.00 | 68 | 1009.9 |
| 20260506021022 | 17 | 129 | 3.2 | 8.0 | 0.00 | 0.00 | 0.00 | 68 | 1009.9 |
| 20260506021015 | 17 | 193 | 3.2 | 11.3 | 0.00 | 0.00 | 0.00 | 68 | 1009.8 |
| 20260506020016 | 17 | 239 | 3.2 | 17.7 | 0.00 | 0.00 | 0.00 | 68 | 1009.8 |
| 20260506015515 | 17 | 199 | 4.8 | 17.7 | 0.00 | 0.00 | 0.00 | 68 | 1009.8 |
| 20260506015015 | 17 | 195 | 4.8 | 14.5 | 0.00 | 0.00 | 0.00 | 67 | 1009.8 |
| 20260506014515 | 17 | 233 | 4.8 | 12.9 | 0.00 | 0.00 | 0.00 | 67 | 1009.7 |
| 20260506014015 | 18 | 163 | 3.2 | 12.9 | 0.00 | 0.00 | 0.00 | 66 | 1009.8 |
| 20260506013522 | 18 | 243 | 4.8 | 16.1 | 0.00 | 0.00 | 0.00 | 65 | 1009.7 |
| 20260506013516 | 18 | 183 | 3.2 | 16.1 | 0.00 | 0.00 | 0.00 | 66 | 1009.7 |
| 20260506012517 | 18 | 201 | 3.2 | 16.1 | 0.00 | 0.00 | 0.00 | 64 | 1009.5 |
| 20260506012015 | 18 | 208 | 3.2 | 9.7 | 0.00 | 0.00 | 0.00 | 64 | 1009.6 |
| 20260506011516 | 18 | 189 | 4.8 | 11.3 | 0.00 | 0.00 | 0.00 | 64 | 1009.5 |
| 20260506011021 | 18 | 214 | 3.2 | 8.0 | 0.00 | 0.00 | 0.00 | 64 | 1009.4 |
| 20260506011014 | 18 | 230 | 3.2 | 11.3 | 0.00 | 0.00 | 0.00 | 64 | 1009.5 |
| 20260506010015 | 18 | 224 | 3.2 | 8.0 | 0.00 | 0.00 | 0.00 | 64 | 1009.3 |
| 20260506005525 | 19 | 116 | 4.8 | 16.1 | 0.00 | 0.00 | 0.00 | 63 | 1009.1 |
| 20260506005515 | 18 | 176 | 3.2 | 14.5 | 0.00 | 0.00 | 0.00 | 64 | 1009.3 |
| 20260506005014 | 18 | 228 | 3.2 | 14.5 | 0.00 | 0.00 | 0.00 | 63 | 1009.2 |
| 20260506004515 | 19 | 226 | 4.8 | 12.9 | 0.00 | 0.00 | 0.00 | 64 | 1009.2 |
| 20260506003515 | 19 | 224 | 4.8 | 16.1 | 0.00 | 0.00 | 0.00 | 63 | 1009.0 |
| 20260506003015 | 19 | 231 | 4.8 | 12.9 | 0.00 | 0.00 | 0.00 | 63 | 1008.9 |
| 20260506002516 | 19 | 210 | 4.8 | 24.1 | 0.00 | 0.00 | 0.00 | 62 | 1008.9 |
| 20260506002014 | 19 | 224 | 6.4 | 24.1 | 0.00 | 0.00 | 0.00 | 62 | 1008.8 |
| 20260506001516 | 20 | 225 | 8.0 | 24.1 | 0.00 | 0.00 | 0.00 | 62 | 1008.8 |
| 20260506001016 | 20 | 209 | 6.4 | 24.1 | 0.00 | 0.00 | 0.00 | 62 | 1008.7 |
| 20260506000514 | 20 | 201 | 6.4 | 20.9 | 0.00 | 0.00 | 0.00 | 61 | 1008.6 |
| 20260506000014 | 20 | 234 | 4.8 | 14.5 | 0.00 | 0.00 | 0.00 | 61 | 1008.5 |
| 20260505235521 | 20 | 208 | 4.8 | 14.5 | 0.00 | 0.00 | 0.00 | 61 | 1008.4 |
| 20260505235514 | 20 | 210 | 4.8 | 14.5 | 0.00 | 0.00 | 0.00 | 61 | 1008.5 |
| 20260505234515 | 20 | 239 | 4.8 | 16.1 | 0.00 | 0.00 | 0.00 | 60 | 1008.4 |
| 20260505234014 | 20 | 246 | 4.8 | 16.1 | 0.00 | 0.00 | 0.00 | 59 | 1008.2 |
| 20260505233522 | 21 | 138 | 6.4 | 16.1 | 0.00 | 0.00 | 0.00 | 59 | 1008.1 |
| 20260505233515 | 20 | 176 | 4.8 | 16.1 | 0.00 | 0.00 | 0.00 | 59 | 1008.1 |
| 20260505232515 | 21 | 216 | 6.4 | 16.1 | 0.00 | 0.00 | 0.00 | 58 | 1007.8 |
| 20260505232021 | 21 | 212 | 6.4 | 16.1 | 0.00 | 0.00 | 0.00 | 57 | 1007.9 |
| 20260505232014 | 21 | 233 | 6.4 | 16.1 | 0.00 | 0.00 | 0.00 | 58 | 1007.9 |
| 20260505231017 | 21 | 239 | 6.4 | 19.3 | 0.00 | 0.00 | 0.00 | 56 | 1007.7 |
| 20260505230515 | 22 | 164 | 6.4 | 19.3 | 0.00 | 0.00 | 0.00 | 55 | 1007.7 |
| 20260505230015 | 22 | 214 | 6.4 | 19.3 | 0.00 | 0.00 | 0.00 | 55 | 1007.5 |
| 20260505225516 | 22 | 214 | 4.8 | 12.9 | 0.00 | 0.00 | 0.00 | 54 | 1007.5 |
| 20260505225016 | 22 | 204 | 6.4 | 19.3 | 0.00 | 0.00 | 0.00 | 55 | 1007.5 |
| 20260505224515 | 22 | 224 | 6.4 | 19.3 | 0.00 | 0.00 | 0.00 | 54 | 1007.4 |
| 20260505224014 | 22 | 265 | 6.4 | 17.7 | 0.00 | 0.00 | 0.00 | 53 | 1007.3 |
| 20260505223515 | 22 | 242 | 8.0 | 17.7 | 0.00 | 0.00 | 0.00 | 53 | 1007.1 |
| 20260505223016 | 23 | 200 | 8.0 | 17.7 | 0.00 | 0.00 | 0.00 | 52 | 1007.1 |
| 20260505222515 | 23 | 183 | 6.4 | 19.3 | 0.00 | 0.00 | 0.00 | 52 | 1006.9 |
| 20260505222015 | 23 | 165 | 6.4 | 19.3 | 0.00 | 0.00 | 0.00 | 51 | 1006.8 |
| 20260505221516 | 23 | 226 | 8.0 | 25.7 | 0.00 | 0.00 | 0.00 | 52 | 1006.8 |
| 20260505221016 | 23 | 284 | 8.0 | 25.7 | 0.00 | 0.00 | 0.00 | 51 | 1006.8 |
| 20260505220516 | 24 | 152 | 8.0 | 19.3 | 0.00 | 0.00 | 0.00 | 51 | 1006.8 |
| 20260505220014 | 24 | 135 | 9.7 | 25.7 | 0.00 | 0.00 | 0.00 | 50 | 1006.7 |
| 20260505215513 | 24 | 236 | 8.0 | 25.7 | 0.00 | 0.00 | 0.00 | 50 | 1006.8 |
| 20260505215013 | 24 | 155 | 6.4 | 19.3 | 0.00 | 0.00 | 0.00 | 50 | 1006.9 |
| 20260505214513 | 24 | 134 | 8.0 | 20.9 | 0.00 | 0.00 | 0.00 | 49 | 1006.8 |
| 20260505214013 | 24 | 215 | 8.0 | 20.9 | 0.00 | 0.00 | 0.00 | 50 | 1006.9 |
| 20260505213514 | 24 | 222 | 9.7 | 30.6 | 0.00 | 0.00 | 0.00 | 50 | 1006.9 |
| 20260505213013 | 25 | 221 | 9.7 | 30.6 | 0.00 | 0.00 | 0.00 | 49 | 1006.8 |
| 20260505212513 | 25 | 309 | 6.4 | 24.1 | 0.00 | 0.00 | 0.00 | 49 | 1006.8 |
| 20260505212012 | 25 | 195 | 6.4 | 24.1 | 0.00 | 0.00 | 0.00 | 50 | 1006.8 |
| 20260505211514 | 25 | 164 | 6.4 | 24.1 | 0.00 | 0.00 | 0.00 | 49 | 1006.9 |
| 20260505211014 | 25 | 170 | 8.0 | 20.9 | 0.00 | 0.00 | 0.00 | 50 | 1006.8 |
| 20260505210513 | 25 | 219 | 8.0 | 22.5 | 0.00 | 0.00 | 0.00 | 49 | 1006.8 |
| 20260505210013 | 25 | 155 | 8.0 | 22.5 | 0.00 | 0.00 | 0.00 | 49 | 1006.7 |
| 20260505205513 | 25 | 245 | 8.0 | 27.4 | 0.00 | 0.00 | 0.00 | 49 | 1006.6 |
| 20260505205014 | 25 | 194 | 11.3 | 27.4 | 0.00 | 0.00 | 0.00 | 49 | 1006.6 |
| 20260505204515 | 25 | 245 | 11.3 | 27.4 | 0.00 | 0.00 | 0.00 | 48 | 1006.7 |
| 20260505204014 | 26 | 143 | 8.0 | 22.5 | 0.00 | 0.00 | 0.00 | 48 | 1006.6 |
| 20260505203512 | 26 | 193 | 8.0 | 24.1 | 0.00 | 0.00 | 0.00 | 49 | 1006.6 |
| 20260505203013 | 26 | 232 | 8.0 | 24.1 | 0.00 | 0.00 | 0.00 | 50 | 1006.8 |
| 20260505202514 | 26 | 213 | 8.0 | 22.5 | 0.00 | 0.00 | 0.00 | 48 | 1006.7 |